Regional Weather Roundup
Issued by NWS Lake Charles, LA

Home | Current Version | Previous Version | Text Only | Print | Product List | Glossary On
Versions: 1 2 3 4 5 6 7 8 9 10 11 12 13 14 15 16 17 18 19 20 21 22 23 24 25 26 27 28 29 30 31 32 33 34 35 36 37 38 39 40 41 42 43 44 45 46 47 48 49 50
000
ASUS44 KLCH 191210
RWRLCH
RWRLCH
REGIONAL WEATHER ROUNDUP
NATIONAL WEATHER SERVICE LAKE CHARLES LA
700 AM CDT FRI SEP 19 2014

Note: "fair" indicates few or no clouds below 12,000 feet with no
significant weather and/or obstructions to visibility.


ACROSS SOUTHEAST TEXAS

CITY           SKY/WX    TMP DP  RH WIND       PRES   REMARKS
BEAUMONT       CLOUDY    76  74  93 NE8       29.89R
BEAUMONT CITY  CLOUDY    74  73  98 NE3       29.90R
ORANGE         CLOUDY   N/A N/A N/A NE3       29.91R HAZE
JASPER         CLOUDY    71  69  95 CALM      29.94R
$$

ACROSS CENTRAL LOUISIANA

CITY           SKY/WX    TMP DP  RH WIND       PRES   REMARKS
LEESVILLE      CLOUDY    72  71  97 E3        29.92R
FULLERTON        N/A     72  69  90 CALM      29.91R FOG
ALEXANDRIA INT PTCLDY    70  68  93 E5        29.92R
ESLER FIELD    PTCLDY    71  68  90 E3        29.94R
DERIDDER       PTSUNNY   73  71  95 CALM      29.93R FOG
OAKDALE        MOSUNNY   70  69  96 CALM      29.92R FOG
OPELOUSAS      PTSUNNY   71  70  98 CALM      29.93R FOG
$$

ACROSS SOUTHWEST AND SOUTH CENTRAL LOUISIANA

CITY           SKY/WX    TMP DP  RH WIND       PRES   REMARKS
SULPHUR        CLOUDY    75  75  98 E6        29.91R
LAKE CHARLES   CLOUDY    74  72  93 E6        29.90R
CHENNAULT INT  MOCLDY    73  72  94 CALM      29.91R
CAMERON PHI      N/A     75  72  88 CALM      29.93R
DEQUINCY       CLOUDY    73  73  99 CALM      29.91S
JENNINGS         N/A     71  71  98 CALM      29.91R
LAFAYETTE      MOCLDY    73  72  96 NE7       29.92R
NEW IBERIA     PTCLDY    74  72  93 SE6       29.92R
ABBEVILLE      CLOUDY    72  72  98 CALM      29.92R
PATTERSON      PTCLDY    72  70  94 E5        29.93R
SALT POINT       N/A     76  73  91 VRB3      29.91R
$$

SELECTED SITES ACROSS THE REGION

CITY           SKY/WX    TMP DP  RH WIND       PRES   REMARKS
HOUSTON BUSH   CLOUDY    75  74  96 NW6       29.89R
HOUSTON HOBBY  LGT RAIN  76  76 100 CALM      29.87S
GALVESTON      RAIN      75  74  96 SE3       29.88F FOG
COLLEGE STAT   CLOUDY    73  73 100 NE6       29.90R
CONROE         LGT RAIN  73  72  96 CALM      29.92R
HUNTSVILLE     CLOUDY    74  72  93 CALM      29.92R
LUFKIN         CLOUDY    75  71  87 CALM      29.92R
SHREVEPORT     MOCLDY    73  71  93 N6        29.93R
MONROE         CLEAR     68  66  93 E5        29.97R
NATCHEZ MS     CLEAR     70  66  88 CALM      29.96R
BATON ROUGE    PTCLDY    71  69  93 NE5       29.93R
N.O. INTL ARPT CLOUDY    76  68  76 E6        29.93R
SLIDELL        CLOUDY    72  69  90 NE3       29.94R
$$

MARINE REPORTS

STATION/POSITION TIME  TEMP    WIND        PRES    VSBY  WAVE
                       AIR SEA DIR/SP/G                  HT/PER
                 (UTC) (F)     (DEG/KT/KT) (MB)    (MI)  (FT/S)
BUOY 30 S HIGH I 1200   78 83  150/  8/ 10 1011.3R         2/ 5
SEA RIM ST PARK  1200   76     100/  5/  7 1012.6R
PORT ARTHUR      1200      83   80/  4/  6 1012.3R
SABINE PASS N    1200   76 82   90/  5/  6 1012.2S
TEXAS POINT      1200   78 81  100/  9/ 10 1012.2S
CALCASIEU PASS   1200   76 82  170/  6/  8 1013.4R
LK CHARLES BEACH 1200   74 83              1012.6R
MARSH ISLAND     NOT AVBL
FRESH WATER LOCK 1200   76 84   50/  4/  5 1012.5R
AMERADA PASS     1200   74 82   80/  4/  6 1012.5S
$$


USA.gov is the U.S. government's official web portal to all federal, state and local government web resources and services.